Waarnemingen

Advertentie
Mijn weer
Gemini, Nederland (6214): temperatuur & dauwpunt: 20.05.2017 17:00:00 - 26.05.2017 17:00:00 (CEST)Gemini, Nederland (6214): windsnelheid & windstoten: 20.05.2017 17:00:00 - 26.05.2017 17:00:00 (CEST)Gemini, Nederland (6214): windrichting: 20.05.2017 17:00:00 - 26.05.2017 17:00:00 (CEST)Gemini, Nederland (6214): luchtdruk: 20.05.2017 17:00:00 - 26.05.2017 17:00:00 (CEST)Gemini, Nederland (6214): zicht: 20.05.2017 17:00:00 - 26.05.2017 17:00:00 (CEST)
Datum & Tijd tt [°C] td [°C] ff [km/u] ff [kn] fx [km/u] fx [kn] dd ppp [hPa] vv [km]
26.05.2017 17:00:00 - - - - - - - - -
26.05.2017 16:00:00 10,3 10,1 15 8 18 10 O 1023,8 0,2
26.05.2017 15:00:00 10,2 9,9 15 8 18 10 O 1024,1 0,1
26.05.2017 14:00:00 10,3 10,0 13 7 14 8 O 1024,4 0,2
26.05.2017 13:00:00 10,2 9,6 5 3 14 8 O 1024,8 0,2
26.05.2017 12:00:00 10,2 9,7 8 4 11 6 O 1024,7 0,1
26.05.2017 11:00:00 10,6 9,7 8 4 7 4 NO 1024,6 0,1
26.05.2017 10:00:00 10,0 9,9 8 4 11 6 ONO 1024,5 0,1
26.05.2017 09:00:00 9,7 9,6 4 2 7 4 NNO 1024,7 0,1
26.05.2017 08:00:00 9,3 9,3 8 4 7 4 O 1024,2 0,1
26.05.2017 07:00:00 9,6 9,6 9 5 14 8 NO 1024,2 0,1
26.05.2017 06:00:00 9,6 9,5 15 8 14 8 ONO 1024,0 0,1
26.05.2017 05:00:00 10,0 9,7 13 7 14 8 ONO 1024,0 0,2
26.05.2017 04:00:00 11,9 11,2 13 7 14 8 NO 1024,0 10
26.05.2017 03:00:00 12,1 11,3 11 6 11 6 NNO 1024,0 9
26.05.2017 02:00:00 12,2 11,6 9 5 14 8 N 1024,5 10
26.05.2017 01:00:00 12,3 11,6 11 6 14 8 N 1024,4 10
26.05.2017 00:00:00 12,5 11,5 15 8 14 8 N 1024,4 10
25.05.2017 23:00:00 12,8 11,7 13 7 18 10 NNW 1024,3 10
25.05.2017 22:00:00 13,2 11,4 18 10 18 10 NNW 1024,4 10
25.05.2017 21:00:00 13,5 11,3 13 7 18 10 NNW 1024,1 10
25.05.2017 20:00:00 13,6 11,0 16 9 18 10 NW 1024,5 10
25.05.2017 19:00:00 13,9 11,0 13 7 14 8 WNW 1024,7 10
25.05.2017 18:00:00 13,7 10,8 13 7 14 8 W 1025,0 10
25.05.2017 17:00:00 13,7 10,7 13 7 14 8 W 1025,4 10
25.05.2017 16:00:00 13,8 10,6 13 7 18 10 WNW 1025,5 10
25.05.2017 15:00:00 14,0 10,3 11 6 14 8 WNW 1025,7 10
25.05.2017 14:00:00 14,1 9,9 11 6 14 8 WNW 1025,8 10
25.05.2017 13:00:00 13,7 9,8 15 8 18 10 NW 1025,7 10
25.05.2017 12:00:00 13,0 9,9 15 8 18 10 NNW 1025,6 10
25.05.2017 11:00:00 13,2 9,9 15 8 22 12 NNW 1025,2 10
25.05.2017 10:00:00 13,0 10,0 16 9 18 10 NNW 1025,2 10
25.05.2017 09:00:00 12,5 10,1 18 10 22 12 NNW 1024,8 10
25.05.2017 08:00:00 11,8 10,0 21 11 22 12 NNW 1024,7 10
25.05.2017 07:00:00 11,7 10,0 16 9 18 10 NW 1024,5 10
25.05.2017 06:00:00 11,8 9,6 16 9 18 10 NNW 1024,2 10
25.05.2017 05:00:00 11,4 10,0 16 9 22 12 NNW 1024,1 10
25.05.2017 04:00:00 11,4 10,1 13 7 18 10 NNW 1024,4 10
25.05.2017 03:00:00 11,2 10,2 11 6 14 8 NNW 1024,4 10
25.05.2017 02:00:00 11,1 10,2 11 6 14 8 NNW 1024,3 10
25.05.2017 01:00:00 10,7 10,1 15 8 14 8 N 1024,4 10
25.05.2017 00:00:00 10,2 9,7 15 8 18 10 N 1024,4 1,1
24.05.2017 23:00:00 10,3 9,7 15 8 18 10 N 1024,2 3,0
24.05.2017 22:00:00 10,8 9,8 21 11 22 12 NNW 1023,9 10
24.05.2017 21:00:00 11,5 10,3 18 10 22 12 N 1023,7 10
24.05.2017 20:00:00 11,9 10,4 18 10 29 16 NNW 1023,4 10
24.05.2017 19:00:00 12,1 10,5 21 11 25 14 NNW 1023,3 10
24.05.2017 18:00:00 12,5 10,6 15 8 22 12 NNW 1023,3 10
24.05.2017 17:00:00 12,5 10,6 15 8 22 12 NNW 1023,3 10
24.05.2017 16:00:00 12,5 10,6 21 11 25 14 NW 1023,2 10
24.05.2017 15:00:00 13,1 10,3 18 10 25 14 WNW 1022,9 10
24.05.2017 14:00:00 13,0 10,5 15 8 14 8 W 1022,9 10
24.05.2017 13:00:00 12,6 10,2 11 6 18 10 WZW 1023,1 10
24.05.2017 12:00:00 12,4 9,4 9 5 14 8 WZW 1023,0 10
24.05.2017 11:00:00 12,4 9,4 13 7 14 8 WZW 1022,9 10
24.05.2017 10:00:00 12,8 9,1 9 5 14 8 W 1022,9 10
24.05.2017 09:00:00 12,7 7,1 13 7 14 8 NW 1022,7 10
24.05.2017 08:00:00 12,2 7,3 13 7 22 12 NW 1022,5 10
24.05.2017 07:00:00 11,9 7,8 15 8 22 12 NW 1022,1 10
24.05.2017 06:00:00 11,6 8,0 15 8 22 12 NW 1021,6 10
24.05.2017 05:00:00 11,3 8,6 15 8 25 14 NNW 1021,9 10
24.05.2017 04:00:00 11,3 8,7 21 11 25 14 NW 1021,9 10
24.05.2017 03:00:00 11,3 8,7 16 9 22 12 NNW 1021,8 10
24.05.2017 02:00:00 11,3 8,9 16 9 25 14 NNW 1021,8 10
24.05.2017 01:00:00 11,3 9,0 22 12 29 16 NW 1021,7 10
24.05.2017 00:00:00 11,4 8,5 26 14 29 16 NW 1021,7 10
23.05.2017 23:00:00 11,4 8,8 24 13 29 16 NW 1021,5 10
23.05.2017 22:00:00 11,4 9,1 22 12 - - NW 1021,2 10
23.05.2017 21:00:00 11,4 8,9 21 11 25 14 NW 1020,5 10
23.05.2017 20:00:00 11,6 9,0 24 13 32 18 NW 1020,3 10
23.05.2017 19:00:00 11,7 9,1 28 15 32 18 NW 1020,0 10
23.05.2017 18:00:00 11,6 8,9 31 17 36 19 NW 1019,6 10
23.05.2017 17:00:00 11,7 8,9 26 14 36 19 NNW 1019,1 10
23.05.2017 16:00:00 11,8 9,0 24 13 32 18 NNW 1018,6 10
23.05.2017 15:00:00 12,1 9,3 26 14 32 18 NNW 1017,8 10
23.05.2017 14:00:00 12,2 9,7 26 14 32 18 NNW 1017,1 10
23.05.2017 13:00:00 12,6 10,1 24 13 36 19 NNW 1016,2 10
23.05.2017 12:00:00 12,6 10,6 31 17 36 19 NW 1015,6 10
23.05.2017 11:00:00 13,0 10,3 26 14 32 18 NW 1014,8 10
23.05.2017 10:00:00 14,7 9,2 8 4 11 6 WZW 1013,6 10
23.05.2017 09:00:00 16,2 8,9 15 8 18 10 WNW 1013,9 10
23.05.2017 08:00:00 16,7 9,2 13 7 18 10 WNW 1013,9 10
23.05.2017 07:00:00 15,4 10,7 11 6 18 10 WZW 1013,5 10
23.05.2017 06:00:00 15,2 9,9 16 9 29 16 ZW 1013,5 10
23.05.2017 05:00:00 16,2 9,3 34 18 32 18 ZZW 1013,3 10
23.05.2017 04:00:00 15,6 10,0 37 20 40 21 Z 1013,3 10
23.05.2017 03:00:00 16,6 9,2 35 19 40 21 Z 1013,9 10
23.05.2017 02:00:00 16,0 10,0 22 12 32 18 ZZO 1014,3 10
23.05.2017 01:00:00 15,8 10,4 31 17 36 19 ZZO 1014,9 10
23.05.2017 00:00:00 14,7 9,7 24 13 36 19 ZO 1015,4 10
22.05.2017 23:00:00 15,5 8,1 24 13 36 19 OZO 1015,7 10
22.05.2017 22:00:00 14,9 7,9 18 10 22 12 OZO 1016,6 10
22.05.2017 21:00:00 14,4 9,0 22 12 29 16 O 1016,7 10
22.05.2017 20:00:00 15,2 8,0 22 12 25 14 O 1017,1 10
22.05.2017 19:00:00 14,4 9,3 22 12 25 14 OZO 1017,3 10
22.05.2017 18:00:00 14,4 9,7 22 12 29 16 OZO 1017,9 10
22.05.2017 17:00:00 14,4 10,1 24 13 29 16 O 1018,4 10
22.05.2017 16:00:00 14,8 9,8 26 14 25 14 O 1019,2 10
22.05.2017 15:00:00 13,5 10,5 21 11 22 12 OZO 1019,7 10
22.05.2017 14:00:00 13,3 9,9 21 11 22 12 OZO 1020,2 10
22.05.2017 13:00:00 13,3 9,7 16 9 18 10 OZO 1020,7 10
22.05.2017 12:00:00 12,9 9,7 15 8 18 10 ZO 1021,4 10
22.05.2017 11:00:00 13,1 9,4 13 7 18 10 ZO 1021,6 10
22.05.2017 10:00:00 13,4 8,7 16 9 22 12 ZO 1021,8 10
22.05.2017 09:00:00 13,9 7,5 18 10 25 14 ZZO 1021,9 10
22.05.2017 08:00:00 13,7 7,3 15 8 22 12 ZZO 1022,2 10
22.05.2017 07:00:00 13,5 7,1 18 10 22 12 ZZO 1022,6 10
22.05.2017 06:00:00 12,9 7,4 15 8 18 10 ZZO 1022,8 10
22.05.2017 05:00:00 12,3 9,0 13 7 18 10 ZZO 1023,0 10
22.05.2017 04:00:00 12,2 9,6 15 8 14 8 ZZO 1023,5 10
22.05.2017 03:00:00 12,0 9,3 9 5 11 6 ZO 1024,0 10
22.05.2017 02:00:00 11,7 9,6 11 6 14 8 ZZO 1024,4 10
22.05.2017 01:00:00 11,5 9,4 11 6 14 8 ZZO 1024,7 10
22.05.2017 00:00:00 11,4 10,0 9 5 14 8 ZO 1024,9 10
21.05.2017 23:00:00 11,3 10,2 13 7 14 8 ZO 1025,1 10
21.05.2017 22:00:00 11,3 9,8 9 5 11 6 OZO 1025,1 10
21.05.2017 21:00:00 11,8 9,1 5 3 7 4 N 1025,2 10
21.05.2017 20:00:00 12,3 9,7 4 2 7 4 W 1025,5 10
21.05.2017 19:00:00 12,5 9,5 8 4 11 6 W 1025,9 10
21.05.2017 18:00:00 12,3 9,5 8 4 11 6 W 1026,3 10
21.05.2017 17:00:00 12,4 10,1 9 5 11 6 WZW 1026,7 10
21.05.2017 16:00:00 12,4 9,6 8 4 14 8 W 1027,0 10
21.05.2017 15:00:00 12,7 9,9 9 5 22 12 WZW 1027,2 10
21.05.2017 14:00:00 12,5 9,9 11 6 18 10 WZW 1027,3 10
21.05.2017 13:00:00 12,3 9,7 16 9 22 12 WZW 1027,3 10
21.05.2017 12:00:00 12,2 9,5 16 9 22 12 WZW 1027,1 10
21.05.2017 11:00:00 12,2 9,6 16 9 25 14 WZW 1026,7 10
21.05.2017 10:00:00 11,7 9,5 18 10 25 14 ZW 1026,4 10
21.05.2017 09:00:00 12,0 8,9 21 11 25 14 ZW 1025,9 10
21.05.2017 08:00:00 12,3 8,3 21 11 29 16 ZW 1025,5 10
21.05.2017 07:00:00 12,3 8,2 24 13 29 16 ZW 1025,1 10
21.05.2017 06:00:00 12,4 8,3 22 12 29 16 ZW 1024,9 10
21.05.2017 05:00:00 12,9 8,0 24 13 29 16 ZW 1024,7 10
21.05.2017 04:00:00 13,3 7,6 24 13 29 16 ZZW 1024,6 10
21.05.2017 03:00:00 13,3 7,9 24 13 29 16 ZW 1024,7 10
21.05.2017 02:00:00 13,0 8,5 21 11 22 12 ZZW 1024,6 10
21.05.2017 01:00:00 13,2 8,1 18 10 22 12 ZZW 1024,5 10
21.05.2017 00:00:00 13,2 7,9 18 10 22 12 ZZW 1023,9 10
20.05.2017 23:00:00 12,5 8,8 18 10 22 12 Z 1023,9 10
20.05.2017 22:00:00 12,1 8,8 13 7 14 8 Z 1023,7 10
20.05.2017 21:00:00 12,1 8,4 13 7 18 10 ZZW 1023,3 10
20.05.2017 20:00:00 12,3 7,7 15 8 18 10 ZZW 1022,9 10
20.05.2017 19:00:00 12,0 8,6 15 8 18 10 ZW 1022,4 10
20.05.2017 18:00:00 11,9 9,1 9 5 18 10 ZW 1022,1 10
20.05.2017 17:00:00 12,2 9,1 16 9 22 12 ZW 1021,7 10

tt = temperatuur
td = dauwpunt
ff = windsnelheid
fx = windstoten
dd = windrichting
ppp = luchtdruk
vv = zicht

Weerstations in de omgeving